sat.trackr.live / text

‹ back to catalog

STARLINK-4466

NORAD 53656 · 2022-105J

PAYLOAD ACTIVE UNKNOWN

§ Identity

Operator
Country
US
Launch date
2022-08-31
Launch site
AFWTR
Launch vehicle
Mass (kg)
RCS (m²)

Purposes: comms

External: N2YO · Heavens-Above · Gunter

§ Orbital elements

Epoch: 2026-09-20T13:54:17.518752Z

Period
95.64 min
Inclination
97.2839°
Eccentricity
0.0001897
Mean motion
15.05654160 rev/d
Perigee alt
548.2 km
Apogee alt
550.8 km
Semi-major
6,927.6 km
B*
2.8481e-6
RAAN
137.3855°
Arg perigee
77.2409°
Mean anomaly
282.9031°
Rev number
22,255

§ Raw data

STARLINK-44661 53656U 22105J   26263.57936943 -.00000015  00000+0  28481-5 0  99942 53656  97.2839 137.3855 0001897  77.2409 282.9031 15.05654160222555

JSON: /api/v1/satellites/53656 · /tle

For live sub-satellite position, see the globe view (requires WebGL).

§ Visibility from observer

Set your observer location to see the next 7 days of passes ≥ 10°. The values pass through the URL so the page stays shareable.

No JS? Fill the form by hand. The geolocation button needs JavaScript.